Tracking 20083 objects as of 12-Dec-2019
HD Live streaming from Space Station
objects crossing your sky now

FENGYUN 1C DEB

Track FENGYUN 1C DEB now!
10-day predictions


NORAD ID: 30504
Int'l Code: 1999-025AHS
Perigee: 760.5 km
Apogee: 934.2 km
Inclination: 99.0 °
Period: 101.7 minutes
Semi major axis: 7218 km
RCS: 0.0107 m2 (small)
Launch date: May 10, 1999
Source: People's Republic of China (PRC)
Launch site: Taiyaun Space Center, China (TSC)

Note: This is SATELLITE DEBRIS
aabbcc
Your satellite tracking list
Your tracking list is empty




NASA's NSSDC Master Catalog

Two Line Element Set (TLE):
1 30504U 99025AHS 19345.84750937  .00000040  00000-0  41344-4 0  9996
2 30504  99.0274 313.3143 0120360 318.1570 100.5223 14.15617982664182
Source of the keplerian elements: AFSPC